JA4149 RJFK-RJFK

Flight info

Callsign JA4149
Flight time 0h 23m
Altitude 11000
Route KAJIKITOWN OSAKIBANA KAGOSHIMACITY SAKURAJIMA KAGOSHIMACITY OSAKIBANA KAJIKITOWN TGL LANDING
Aircraft C172/L-SDE3/L

Departure

Time 2026-04-28 14:06
Airport Kagoshima Airport (RJFK)

Arrival

Time 2026-04-28 14:29
Airport Kagoshima Airport (RJFK)
Time Latitude Longitude Altitude Speed Heading
2026-04-28 13:57 31.79260 130.72351 866 ft 0 kts 329°
2026-04-28 14:01 31.79261 130.72351 866 ft 0 kts 328°
2026-04-28 14:01 31.79277 130.72343 866 ft 2 kts
2026-04-28 14:01 31.79287 130.72351 866 ft 0 kts 53°
2026-04-28 14:02 31.79288 130.72353 866 ft 3 kts 52°
2026-04-28 14:02 31.79298 130.72415 865 ft 14 kts 143°
2026-04-28 14:03 31.79183 130.72494 861 ft 27 kts 150°
2026-04-28 14:03 31.79131 130.72632 857 ft 11 kts 64°
2026-04-28 14:03 31.79136 130.72643 857 ft 0 kts 58°
2026-04-28 14:04 31.79137 130.72644 857 ft 0 kts 58°
2026-04-28 14:04 31.79140 130.72650 857 ft 0 kts 59°
2026-04-28 14:04 31.79144 130.72658 857 ft 8 kts 54°
2026-04-28 14:04 31.79226 130.72691 858 ft 18 kts 330°
2026-04-28 14:05 31.79450 130.72554 865 ft 58 kts 323°
2026-04-28 14:05 31.79787 130.72325 962 ft 70 kts 323°
2026-04-28 14:05 31.80169 130.72093 1107 ft 72 kts 323°
2026-04-28 14:05 31.80652 130.71796 1294 ft 74 kts 322°
2026-04-28 14:06 31.81086 130.71464 1480 ft 71 kts 304°
2026-04-28 14:06 31.81149 130.70950 1648 ft 67 kts 245°
2026-04-28 14:06 31.80913 130.70520 1791 ft 71 kts 236°
2026-04-28 14:06 31.80405 130.70291 1818 ft 89 kts 178°
2026-04-28 14:07 31.79837 130.70676 1889 ft 92 kts 151°
2026-04-28 14:07 31.79325 130.71063 1952 ft 95 kts 157°
2026-04-28 14:07 31.78772 130.71149 2012 ft 88 kts 203°
2026-04-28 14:07 31.78189 130.70862 2113 ft 85 kts 210°
2026-04-28 14:08 31.77576 130.70534 2213 ft 85 kts 211°
2026-04-28 14:08 31.77190 130.70323 2301 ft 83 kts 211°
2026-04-28 14:08 31.76830 130.70126 2384 ft 81 kts 211°
2026-04-28 14:08 31.76242 130.69806 2524 ft 79 kts 211°
2026-04-28 14:09 31.75562 130.69469 2688 ft 77 kts 209°
2026-04-28 14:09 31.75003 130.69199 2777 ft 79 kts 209°
2026-04-28 14:09 31.74601 130.69003 2837 ft 80 kts 209°
2026-04-28 14:09 31.74049 130.68733 2894 ft 84 kts 209°
2026-04-28 14:10 31.73320 130.68365 2898 ft 95 kts 209°
2026-04-28 14:10 31.72566 130.67975 2894 ft 99 kts 209°
2026-04-28 14:10 31.72036 130.67699 2893 ft 101 kts 209°
2026-04-28 14:10 31.71355 130.67342 2890 ft 102 kts 209°
2026-04-28 14:11 31.70533 130.66913 2890 ft 103 kts 209°
2026-04-28 14:11 31.69780 130.66518 2889 ft 102 kts 209°
2026-04-28 14:11 31.69207 130.66219 2889 ft 102 kts 209°
2026-04-28 14:11 31.68696 130.65951 2889 ft 102 kts 209°
2026-04-28 14:12 31.68212 130.65700 2889 ft 101 kts 209°
2026-04-28 14:12 31.67740 130.65454 2889 ft 101 kts 209°
2026-04-28 14:12 31.66900 130.65018 2889 ft 101 kts 209°
2026-04-28 14:12 31.66015 130.64558 2889 ft 101 kts 209°
2026-04-28 14:13 31.65141 130.64107 2889 ft 101 kts 209°
2026-04-28 14:13 31.64561 130.63806 2889 ft 101 kts 209°
2026-04-28 14:13 31.63847 130.63437 2889 ft 101 kts 209°
2026-04-28 14:13 31.62959 130.62979 2889 ft 101 kts 209°
2026-04-28 14:14 31.62181 130.62425 3002 ft 91 kts 228°
2026-04-28 14:14 31.61569 130.61697 2984 ft 95 kts 229°
2026-04-28 14:14 31.61196 130.61238 2949 ft 98 kts 231°
2026-04-28 14:14 31.60624 130.60532 2885 ft 101 kts 232°
2026-04-28 14:15 31.60078 130.59769 2815 ft 101 kts 233°
2026-04-28 14:15 31.59723 130.58951 2735 ft 99 kts 258°
2026-04-28 14:15 31.59573 130.58050 2665 ft 99 kts 261°
2026-04-28 14:15 31.59526 130.57179 2602 ft 99 kts 265°
2026-04-28 14:16 31.59413 130.56319 2370 ft 109 kts 246°
2026-04-28 14:16 31.58829 130.55727 2449 ft 101 kts 200°
2026-04-28 14:16 31.58039 130.55591 2658 ft 94 kts 191°
2026-04-28 14:16 31.57164 130.55641 2646 ft 106 kts 165°
2026-04-28 14:17 31.56431 130.56502 2626 ft 116 kts 112°
2026-04-28 14:17 31.56475 130.57767 2604 ft 121 kts 79°
2026-04-28 14:17 31.56831 130.58855 2626 ft 117 kts 49°
2026-04-28 14:17 31.57701 130.59467 2628 ft 115 kts 20°
2026-04-28 14:18 31.58684 130.59941 2632 ft 115 kts 18°
2026-04-28 14:18 31.59418 130.60268 2632 ft 116 kts 17°
2026-04-28 14:18 31.60011 130.60535 2632 ft 116 kts 17°
2026-04-28 14:18 31.60946 130.60976 2637 ft 115 kts 26°
2026-04-28 14:19 31.61628 130.61972 2605 ft 118 kts 67°
2026-04-28 14:19 31.61850 130.63255 2578 ft 117 kts 83°
2026-04-28 14:19 31.62128 130.64470 2631 ft 114 kts 63°
2026-04-28 14:19 31.62737 130.65392 2676 ft 112 kts 43°
2026-04-28 14:20 31.62995 130.66504 2669 ft 113 kts 111°
2026-04-28 14:20 31.62722 130.67722 2695 ft 115 kts 90°
2026-04-28 14:20 31.63215 130.68735 2681 ft 115 kts 29°
2026-04-28 14:20 31.64228 130.68965 2660 ft 109 kts 346°
2026-04-28 14:21 31.64992 130.68773 2664 ft 107 kts 342°
2026-04-28 14:21 31.65865 130.68398 2572 ft 108 kts 324°
2026-04-28 14:21 31.66485 130.67906 2528 ft 105 kts 322°
2026-04-28 14:21 31.67159 130.67386 2478 ft 106 kts 322°
2026-04-28 14:22 31.67935 130.66780 2548 ft 102 kts 322°
2026-04-28 14:22 31.68570 130.66252 2552 ft 103 kts 318°
2026-04-28 14:22 31.69205 130.65604 2598 ft 101 kts 313°
2026-04-28 14:22 31.69625 130.65164 2625 ft 101 kts 315°
2026-04-28 14:23 31.70209 130.64677 2588 ft 106 kts 324°
2026-04-28 14:23 31.71003 130.64088 2652 ft 102 kts 322°
2026-04-28 14:23 31.71721 130.63506 2659 ft 103 kts 319°
2026-04-28 14:23 31.72436 130.62846 2678 ft 103 kts 315°
2026-04-28 14:24 31.72928 130.62532 2628 ft 111 kts 342°
2026-04-28 14:24 31.73737 130.62662 2614 ft 114 kts 11°
2026-04-28 14:24 31.74582 130.62946 2720 ft 108 kts 12°
2026-04-28 14:24 31.75328 130.63246 2737 ft 111 kts 24°
2026-04-28 14:25 31.75994 130.63823 2724 ft 114 kts 34°
2026-04-28 14:25 31.76695 130.64441 2762 ft 112 kts 34°
2026-04-28 14:25 31.77257 130.64964 2780 ft 114 kts 37°
2026-04-28 14:25 31.77576 130.65276 2806 ft 114 kts 37°
2026-04-28 14:26 31.77976 130.65678 2754 ft 116 kts 40°
2026-04-28 14:26 31.78498 130.66443 2578 ft 109 kts 58°
2026-04-28 14:26 31.78820 130.67264 2413 ft 108 kts 72°
2026-04-28 14:26 31.79069 130.68153 2220 ft 109 kts 73°
2026-04-28 14:27 31.79263 130.69006 2042 ft 109 kts 76°
2026-04-28 14:27 31.79326 130.69908 1897 ft 107 kts 108°
2026-04-28 14:27 31.78919 130.70572 1869 ft 103 kts 145°
2026-04-28 14:27 31.78304 130.71164 1865 ft 99 kts 145°
2026-04-28 14:28 31.77821 130.71681 1782 ft 85 kts 127°
2026-04-28 14:28 31.77747 130.72440 1613 ft 85 kts 68°
2026-04-28 14:28 31.78031 130.73004 1496 ft 76 kts 44°
2026-04-28 14:28 31.78493 130.73177 1258 ft 74 kts 341°
2026-04-28 14:29 31.78925 130.72916 1025 ft 68 kts 323°
2026-04-28 14:29 31.79323 130.72630 867 ft 52 kts 325°
2026-04-28 14:29 31.79639 130.72421 870 ft 48 kts 326°
2026-04-28 14:29 31.80100 130.72090 1009 ft 64 kts 327°
2026-04-28 14:30 31.80566 130.71815 1141 ft 74 kts 327°
2026-04-28 14:30 31.81052 130.71516 1361 ft 72 kts 328°
2026-04-28 14:30 31.81391 130.71133 1575 ft 63 kts 271°
2026-04-28 14:30 31.81238 130.70618 1658 ft 73 kts 242°
2026-04-28 14:31 31.80917 130.70165 1841 ft 75 kts 211°
2026-04-28 14:31 31.80353 130.70071 1953 ft 89 kts 171°
2026-04-28 14:31 31.79746 130.70366 1966 ft 101 kts 159°
2026-04-28 14:31 31.79071 130.70764 1979 ft 102 kts 155°
2026-04-28 14:32 31.78454 130.71196 2023 ft 101 kts 153°
2026-04-28 14:32 31.77848 130.71635 1965 ft 100 kts 152°
2026-04-28 14:32 31.77322 130.72108 1821 ft 90 kts 126°
2026-04-28 14:32 31.77307 130.72842 1649 ft 87 kts 62°
2026-04-28 14:33 31.77602 130.73367 1551 ft 76 kts 44°
2026-04-28 14:33 31.78050 130.73537 1388 ft 71 kts 335°
2026-04-28 14:33 31.78441 130.73253 1223 ft 66 kts 322°
2026-04-28 14:33 31.78813 130.72987 1066 ft 62 kts 323°
2026-04-28 14:34 31.79514 130.72504 867 ft 42 kts 328°
2026-04-28 14:34 31.79831 130.72266 882 ft 63 kts 323°
2026-04-28 14:34 31.80345 130.71973 1039 ft 72 kts 328°
2026-04-28 14:35 31.80886 130.71640 1265 ft 71 kts 324°
2026-04-28 14:35 31.81363 130.71278 1464 ft 71 kts 304°
2026-04-28 14:35 31.81335 130.70692 1644 ft 68 kts 238°
2026-04-28 14:35 31.80982 130.70169 1795 ft 75 kts 231°
2026-04-28 14:36 31.80472 130.69902 1842 ft 88 kts 175°
2026-04-28 14:36 31.79875 130.70282 1856 ft 96 kts 150°
2026-04-28 14:36 31.79282 130.70758 1911 ft 96 kts 152°
2026-04-28 14:36 31.78717 130.71179 1958 ft 98 kts 151°
2026-04-28 14:37 31.78140 130.71651 1945 ft 101 kts 149°
2026-04-28 14:37 31.77521 130.72157 1921 ft 100 kts 152°
2026-04-28 14:37 31.76881 130.72649 2007 ft 94 kts 151°
2026-04-28 14:37 31.76286 130.73154 2015 ft 96 kts 148°
2026-04-28 14:38 31.75789 130.73602 2011 ft 97 kts 146°
2026-04-28 14:38 31.75260 130.74083 2042 ft 96 kts 148°
2026-04-28 14:38 31.74807 130.74576 2083 ft 98 kts 125°
2026-04-28 14:38 31.74780 130.75354 2066 ft 109 kts 66°
2026-04-28 14:39 31.75307 130.75797 1973 ft 103 kts 352°
2026-04-28 14:39 31.75812 130.75403 1869 ft 103 kts 312°
2026-04-28 14:39 31.76522 130.74593 1788 ft 106 kts 315°
2026-04-28 14:39 31.77068 130.74185 1720 ft 101 kts 327°
2026-04-28 14:40 31.77642 130.73817 1495 ft 94 kts 323°
2026-04-28 14:40 31.78006 130.73549 1336 ft 92 kts 325°
2026-04-28 14:40 31.78692 130.73084 1159 ft 80 kts 324°
2026-04-28 14:40 31.79122 130.72768 943 ft 70 kts 322°
2026-04-28 14:41 31.79503 130.72510 868 ft 49 kts 326°
2026-04-28 14:41 31.79757 130.72345 875 ft 44 kts 327°
2026-04-28 14:41 31.80082 130.72116 907 ft 69 kts 323°
2026-04-28 14:41 31.80496 130.71858 1073 ft 72 kts 327°
2026-04-28 14:42 31.81009 130.71530 1292 ft 72 kts 323°
2026-04-28 14:42 31.81319 130.71089 1455 ft 69 kts 274°
2026-04-28 14:42 31.81169 130.70509 1626 ft 70 kts 243°
2026-04-28 14:42 31.80875 130.69890 1830 ft 73 kts 238°
2026-04-28 14:43 31.80386 130.69636 1909 ft 90 kts 176°
2026-04-28 14:43 31.79828 130.70091 1838 ft 103 kts 141°
2026-04-28 14:43 31.79187 130.70613 1843 ft 105 kts 152°
2026-04-28 14:43 31.78561 130.71101 1873 ft 106 kts 149°
2026-04-28 14:44 31.77949 130.71620 1869 ft 94 kts 148°
2026-04-28 14:44 31.77490 130.72051 1760 ft 86 kts 129°
2026-04-28 14:44 31.77439 130.72713 1626 ft 84 kts 73°
2026-04-28 14:44 31.77732 130.73271 1470 ft 82 kts 39°
2026-04-28 14:45 31.78275 130.73383 1241 ft 78 kts 326°
2026-04-28 14:45 31.78723 130.73056 1115 ft 67 kts 324°
2026-04-28 14:45 31.79139 130.72759 939 ft 65 kts 320°
2026-04-28 14:45 31.79524 130.72493 867 ft 48 kts 328°
2026-04-28 14:46 31.79924 130.72221 881 ft 70 kts 327°
2026-04-28 14:46 31.80492 130.71860 1147 ft 69 kts 326°
2026-04-28 14:46 31.81017 130.71544 1366 ft 71 kts 327°
2026-04-28 14:46 31.81574 130.71199 1517 ft 77 kts 317°
2026-04-28 14:47 31.81750 130.70578 1696 ft 74 kts 245°
2026-04-28 14:47 31.81515 130.70102 1848 ft 75 kts 239°
2026-04-28 14:47 31.81171 130.69548 1922 ft 87 kts 224°
2026-04-28 14:47 31.80568 130.69498 1885 ft 107 kts 157°
2026-04-28 14:48 31.79847 130.70003 1893 ft 108 kts 153°
2026-04-28 14:48 31.79156 130.70489 1967 ft 104 kts 153°
2026-04-28 14:48 31.78505 130.71025 1987 ft 106 kts 147°
2026-04-28 14:48 31.77885 130.71600 1938 ft 109 kts 144°
2026-04-28 14:49 31.77275 130.72206 1839 ft 96 kts 142°
2026-04-28 14:49 31.77022 130.72900 1696 ft 89 kts 90°
2026-04-28 14:49 31.77309 130.73575 1547 ft 84 kts 37°
2026-04-28 14:49 31.77837 130.73702 1430 ft 73 kts 329°
2026-04-28 14:50 31.78233 130.73389 1266 ft 63 kts 317°
2026-04-28 14:50 31.78547 130.73175 1122 ft 63 kts 323°
2026-04-28 14:50 31.78948 130.72902 1107 ft 75 kts 323°
2026-04-28 14:50 31.79442 130.72559 1145 ft 90 kts 325°
2026-04-28 14:51 31.80007 130.72185 1316 ft 91 kts 326°
2026-04-28 14:51 31.80566 130.71805 1558 ft 85 kts 322°
2026-04-28 14:51 31.81041 130.71440 1701 ft 88 kts 321°
2026-04-28 14:51 31.81479 130.71046 1862 ft 85 kts 307°
2026-04-28 14:52 31.81582 130.70412 1929 ft 91 kts 252°
2026-04-28 14:52 31.81325 130.69759 1989 ft 97 kts 232°
2026-04-28 14:52 31.80717 130.69525 2032 ft 108 kts 168°
2026-04-28 14:52 31.80170 130.69836 2048 ft 101 kts 158°
2026-04-28 14:53 31.79576 130.70221 2047 ft 105 kts 153°
2026-04-28 14:53 31.79118 130.70577 2068 ft 106 kts 149°
2026-04-28 14:53 31.78693 130.70950 2055 ft 109 kts 146°
2026-04-28 14:53 31.78181 130.71469 1986 ft 116 kts 141°
2026-04-28 14:54 31.77763 130.72310 1993 ft 106 kts 95°
2026-04-28 14:54 31.78041 130.73134 1888 ft 98 kts 37°
2026-04-28 14:54 31.78660 130.73105 1461 ft 100 kts 338°
2026-04-28 14:54 31.79336 130.72630 873 ft 103 kts 319°
2026-04-28 14:55 31.79959 130.72198 882 ft 75 kts 327°
2026-04-28 14:55 31.80357 130.71915 891 ft 57 kts 328°
2026-04-28 14:55 31.80536 130.71785 893 ft 12 kts 236°
2026-04-28 14:55 31.80482 130.71712 893 ft 15 kts 236°
2026-04-28 14:56 31.80383 130.71687 893 ft 17 kts 160°
2026-04-28 14:56 31.80207 130.71800 893 ft 13 kts 150°
2026-04-28 14:56 31.79722 130.72131 881 ft 13 kts 150°
2026-04-28 14:56 31.79398 130.72343 868 ft 14 kts 155°
2026-04-28 14:57 31.79284 130.72350 866 ft 12 kts 234°
2026-04-28 14:57 31.79263 130.72359 866 ft 7 kts 179°
2026-04-28 14:57 31.79261 130.72354 866 ft 0 kts 334°